Regional Weather Roundup
Issued by NWS Wakefield, VA

Home | Current Version | Previous Version | Text Only | Print | Product List | Glossary On
Versions: 1 2 3 4 5 6 7 8 9 10 11 12 13 14 15 16 17 18 19 20 21 22 23 24 25 26 27 28 29 30 31 32 33 34 35 36 37 38 39 40 41 42 43 44 45 46 47 48 49 50
533
ASUS41 KAKQ 242215
RWRAKQ

REGIONAL WEATHER ROUNDUP
NATIONAL WEATHER SERVICE WAKEFIELD VA
600 PM EDT FRI MAR 24 2017

Note: "fair" indicates few or no clouds below 12,000 feet with no
significant weather and/or obstructions to visibility. * = Denotes
station may not report precipitation (e.g., rain,snow,etc.),
thunder or fog.

VAZ042-051-052>054-056-242300-
NORTHERN VIRGINIA

CITY           SKY/WX    TMP DP  RH WIND       PRES   REMARKS
WASH NATIONAL  CLOUDY    62  37  39 S20       30.20F
DULLES         PTSUNNY   61  37  41 S13G22    30.18F
FORT BELVOIR   CLOUDY    61  36  39 VRB6      30.20F
QUANTICO       CLOUDY    64  39  39 SW9G18    30.22F
FREDERICKSBRG* CLOUDY    66  45  45 SW15      30.21F
STAFFORD*      CLOUDY    64  40  42 SW8G17    30.25F
WARRENTON      CLOUDY    65  33  30 S9G16     30.20F
CULPEPER*      CLOUDY    66  41  39 S10       30.20F
MANASSAS*      CLOUDY    62  38  40 S12       30.20F
LEESBURG*      CLOUDY    63  41  45 S12       30.18F
WINCHESTER     CLOUDY    63  41  45 S6        30.15S
FRONT ROYAL*     N/A    N/A N/A N/A MISG        N/A
LURAY*         CLEAR     68  43  40 SW14G21   30.16F
$$

VAZ048-049-060>072-079>083-242300-
CENTRAL AND SOUTH CENTRAL VIRGINIA

CITY           SKY/WX    TMP DP  RH WIND       PRES   REMARKS
RICHMOND       CLOUDY    68  46  45 SW16      30.26F
CHESTERFIELD*  FAIR     N/A N/A N/A SW10G20   30.27F
PETERSBURG*    SUNNY     68  44  41 SW15      30.28F
HANOVER        CLOUDY    69  44  40 SW15G24   30.26F
TAPPAHANNOCK*  CLOUDY    69  25  19 S8G17     30.25F
QUINTON*       FAIR      68  46  44 SW10G26   30.26F
CHARLOTTSVILLE CLOUDY    69  42  37 S16       30.21F
GORDONSVILLE*  CLOUDY    67  45  44 S13G18    30.21F
ORANGE*        CLOUDY    66  43  42 S9G18     30.23F
LOUISA*        CLOUDY    72  48  43 SW12      30.21F
BUMPASS*       FAIR      67  45  45 S7G21     30.23F
FARMVILLE*     SUNNY     70  47  44 SW12G20   30.25F
CREWE*         FAIR      67  47  48 SW12G21   30.27F
FORT PICKETT*  FAIR      68  39  34 SW16G26   30.28F
CHASE CITY*    FAIR      68  44  41 SW6G18    30.30F
CLARKSVILLE*   FAIR      68  46  45 SW15G22   30.30F
SOUTH HILL*    SUNNY     67  48  50 SW13G23   30.36F
LAWRENCEVILLE* FAIR      68  46  44 SW12      30.30F
EMPORIA*       SUNNY     68  45  42 S13G20    30.33S
$$

VAZ088>098-242300-
SOUTHEAST VIRGINIA

CITY           SKY/WX    TMP DP  RH WIND       PRES   REMARKS
NORFOLK        SUNNY     69  44  40 SW17G26   30.29F
VIRGINIA BEACH PTSUNNY   68  42  38 SW17G26   30.29F
NORFOLK NAVAL  MOSUNNY   69  44  40 SW12      30.30F
WEST POINT*    SUNNY     69  43  38 SW13G22   30.27F
SALUDA*        FAIR      68  45  44 SW8       30.25F
NEWPORT NEWS   SUNNY     68  46  45 SW17      30.29F
LANGLEY AFB    SUNNY     68  46  45 SW18G26   30.28F
FORT EUSTIS    SUNNY     68  47  45 SW9       30.26F
WILLIAMSBURG*  SUNNY     72  46  40 SW14G22   30.28F
HR EXEC AP*    FAIR      70  45  40 SW12G24   30.29F
FRANKLIN*      SUNNY     68  45  42 SW12G21   30.32F
US460-WAKEFLD  SUNNY     69  46  43 SW14G24   30.29F
$$

VAZ020-022-025-037-045-242300-
WEST CENTRAL AND SOUTHWEST VIRGINIA

CITY           SKY/WX    TMP DP  RH WIND       PRES   REMARKS
STAUNTON*      SUNNY     67  41  37 S13G20    30.21F
WAYNESBORO*    CLOUDY    66  41  40 S8G18     30.22S
HOT SPRINGS VA SUNNY     61  32  33 S8        30.28F
LYNCHBURG      SUNNY     67  44  43 S15       30.27F
DANVILLE       SUNNY     68  45  43 SW18G28   30.30F
SOUTH BOSTON*  FAIR      69  44  40 SW13G20   30.30F
MARTINSVILLE   SUNNY     67  44  42 SW7       30.32F
ROANOKE        MOSUNNY   70  44  39 S14       30.26F
BLACKSBURG     MOSUNNY   67  46  45 S7        30.30F
DUBLIN*        MOSUNNY   70  44  39 S10G16    30.28F
MARION*        SUNNY     70  47  44 W10       30.30F
HILLSVILLE*    SUNNY     63  47  54 S7        30.30F
RICHLANDS*     FAIR      68  47  46 CALM      30.27F
WISE*          SUNNY     68  45  42 S14       30.28S
ABINGDON*      SUNNY     73  46  38 W10       30.26F
$$

MDZ021>025-VAZ099-100-242300-
SOUTHERN MARYLAND AND THE DELMARVA PENINSULA

CITY           SKY/WX    TMP DP  RH WIND       PRES   REMARKS
PATUXENT RIVER PTSUNNY   65  42  43 SW12      30.21F
BAY BRIDGE APT CLOUDY    57  36  44 S12       30.19F
LEONARDTOWN    MOSUNNY   64  37  36 S8        30.22F
DOVER          CLOUDY    57  37  45 S16       30.18F
GEORGETOWN     MOSUNNY   62  34  35 SW16G24   30.22F
EASTON         CLOUDY    61  32  33 S15G22    30.24F
CAMBRIDGE      SUNNY     57  41  54 S10G16    30.21F
SALISBURY      CLOUDY    61  37  41 S15G25    30.23F
OCEAN CITY     CLOUDY    48  42  80 S10       30.26F
WALLOPS ISLAND CLOUDY    52  44  74 S18       30.28F
ACCOMACK*      SUNNY     58  45  60 S7        30.28F
$$

NCZ012>017-030>032-242300-
NORTH CENTRAL AND EASTERN NORTH CAROLINA

CITY           SKY/WX    TMP DP  RH WIND       PRES   REMARKS
ROANOKE RAPIDS FAIR      68  46  45 SW15      30.32F
RALEIGH        MOSUNNY   69  46  43 SW23      30.34F
ELIZABETH CITY SUNNY     69  45  41 SW15      30.34F
AHOSKIE*         N/A     67  46  46 SW7       30.34F
EDENTON*       SUNNY     70  45  41 SW9G16    30.35F
CURRITUCK*     PTSUNNY   68  44  40 SW17G24   30.33F
KILL DEVIL HLS NOT AVBL
MANTEO         MOSUNNY   62  47  59 SW21      30.37S
CAPE HATTERAS  SUNNY     63  50  62 SW8       30.41F
TARBORO*       NOT AVBL
GOLDSBORO      MOSUNNY   72  43  35 SW7       30.34F
WASHINGTON     SUNNY     70  44  38 SW10      30.35F
GREENVILLE     SUNNY     70  45  40 SW12      30.35F
NEW BERN       SUNNY     68  48  48 S15       30.39F
WILMINGTON     SUNNY     67  51  56 SE9       30.40F
$$

VAZ048-242300-
ELSEWHERE

CITY           SKY/WX    TMP DP  RH WIND       PRES   REMARKS
HARRISBURG PA  CLOUDY    58  40  51 SW8       30.12F
BALTIMORE      CLOUDY    60  35  39 SW12G22   30.16F
ANNAPOLIS      CLOUDY    55  40  56 S10G17    30.18F
ANDREWS AFB    MOSUNNY   62  37  39 SW20      30.18F
PHILADELPHIA   CLOUDY    57  32  38 SW18      30.17F
HENDERSON NC   SUNNY     67  45  45 SW16      30.31F
GREENSBORO     MOSUNNY   68  46  45 SW15G22   30.32F
ROCKY MOUNT    SUNNY     69  47  45 S15G21    30.34F
$$

VAZ100-242300-
MARINE

STATION/POSITION TIME  TEMP    WIND        PRES    WAVE   SWELL
                       AIR SEA DIR/SP/G            HT/PER HT/PER
                 (UTC) (F)     (DEG/KT/KT) (MB)    (FT/S) (FT/S)
CAPE MAY NJ      2148   50 44  170/ 11/ 15 1023.0F
LEWES DE         2148          230/ 12/ 17   N/A
OCEAN-CITY-INLET 2148          220/ 17/ 20   N/A
WACHAPREAGUE VA  2148   54 51  200/  8/ 10 1025.3F
THOMAS POINT MD  2200   49 44  180/ 18/ 19   N/A
GOOSES REEF MD   2200   48 44  170/ 14/ 16 1023.1    1/ 2
COVE POINT MD    2148   49     190/ 11/ 13 1023.6F
SOLOMONS ISLAND  2148          220/ 13/ 19   N/A
BISHOPS HEAD MD  2148   52 49  160/ 12/ 15 1024.1F
PINEY POINT MD   2148          240/ 13/ 18   N/A
POTOMAC MD       2200   56 46  240/  8/ 10 1022.9    2/ 3
CAMBRIDGE MD     2148   60 44  200/  5/  9 1022.4F
LEWISETTA VA     2148   66 47  250/ 12/ 15 1023.4F
RAPPAHANNOCK LGT 2148          170/ 14/ 15 1025.6F
STINGRAY PT      2200   58 47  220/ 10/ 14 1025.3    1/ 2
YORK RVR RNG VA  2148   64     230/ 17/ 20 1024.4F
YORKTOWN VA      2148   67 47  230/ 12/ 18 1024.8F
JAMESTOWN VA     2200   66 51  220/ 14/ 17   N/A
DOMINION TERM VA 2148   62     220/ 14/ 15 1026.0F
KIPTOPEKE VA     2148          210/  9/ 11   N/A
CHES BAY BRIDGE  2148   64 48  230/ 20/ 23 1025.5F
CAPE HENRY VA    2148   68     210/ 11/ 16   N/A
WILLOUBY STN VA  2148   62     240/ 17/ 20 1026.4F
S CRANEY ISL VA  2148   67     220/ 11/ 19 1025.8F
CAPE HENRY BUOY  2142      47                N/A     2/10
CAPE CHARLES BUO 2151      47                N/A     2/ 9
OFFSHORE WE BUOY 2151      46                N/A     3/10
64NM E OF VA BCH 2150   54 51  200/ 16/ 17 1027.7F   3/11   2/11
DUCK PIER NC     2148   64 48  200/ 14/ 18 1027.1F
44100 DUCK FRF   2135      50                N/A     2/11   2/11
44056 DUCK FRF   2130      51                N/A     2/10
OREGON INLET NC  2142   57 53  180/ 13/ 15 1028.8F
HATTERAS NC      2148          210/  8/ 12   N/A
DIAMOND SHLS NC  2150   66 74  210/ 16/ 19 1030.0F   4/10   3/10
CAPE LOOKOUT NC  2100   66     210/ 11/ 14 1030.0F
$$




USA.gov is the U.S. government's official web portal to all federal, state and local government web resources and services.